CAPE
0 0 0 0 0 0 0 0 0 0 0 0 0 0 0 0 0 0 0 0 0 0 0 0 0 0 0 0 0 0 0 0 0 0 0 0 0 0 0 0 0 124 443 654 1158
0 0 0 0 0 0 0 0 0 0 0 0 0 0 0 0 0 0 0 0 0 0 0 0 0 0 0 0 0 0 0 0 0 0 0 0 0 0 0 0 0 30 616 903 1341
0 0 0 0 0 0 0 0 0 0 0 0 0 0 0 0 0 0 0 0 0 0 0 0 0 0 0 0 0 0 0 0 0 0 0 0 0 0 0 0 0 0 15 1010 1306
0 0 0 0 0 0 0 0 0 0 0 0 0 0 0 0 0 0 0 0 0 0 0 0 0 0 0 0 0 0 0 0 0 0 0 0 0 0 0 0 0 0 13 589 1100
0 0 0 0 0 0 0 0 0 0 0 0 0 0 0 0 0 0 0 0 0 0 0 0 0 0 0 0 0 0 0 0 0 0 0 0 0 0 0 0 0 0 9 272 720
0 0 0 0 0 0 0 0 0 0 0 0 0 0 0 0 0 0 0 0 0 0 0 0 0 0 0 0 0 0 0 0 0 0 0 0 0 0 0 0 0 0 0 30 351
0 0 0 0 0 0 0 0 0 0 0 0 0 0 0 0 0 0 0 0 0 0 0 0 0 0 0 0 0 0 0 0 0 0 0 0 0 0 0 0 0 0 0 0 238
0 0 0 0 0 0 0 0 0 0 0 0 0 0 0 0 0 0 0 0 0 0 0 0 0 0 0 0 0 0 0 0 0 0 0 0 0 0 0 0 0 0 0 0 430
0 0 0 0 0 0 0 0 0 0 0 0 0 0 0 0 0 0 0 0 0 0 0 0 0 0 0 0 0 0 0 0 0 0 0 0 0 0 0 0 0 0 0 0 55
0 0 0 0 0 0 0 0 0 0 0 0 0 0 0 0 0 0 0 0 0 0 0 0 0 0 0 0 0 0 0 0 0 0 0 0 0 0 0 0 0 0 0 0 0
0 0 0 0 0 0 0 0 0 0 0 0 0 0 0 0 0 0 0 0 0 0 0 0 0 0 0 0 0 0 0 0 0 0 0 0 0 0 0 15 3 0 0 0 0
0 0 0 0 0 0 0 0 0 0 0 0 0 0 0 0 0 0 0 0 0 0 0 0 0 0 0 0 0 0 0 0 0 0 0 0 0 0 3 22 27 15 75 392 731
0 0 0 0 0 0 0 0 0 0 0 0 0 0 0 0 0 0 0 0 0 0 0 0 0 0 0 0 0 0 0 0 0 0 0 0 0 4 3 28 44 46 57 376 1531
0 0 0 0 0 0 0 0 0 0 0 0 0 0 0 0 0 0 0 0 0 0 0 0 0 0 0 0 0 0 0 0 0 0 0 0 35 11 14 7 21 84 430 686 977
0 0 0 0 0 0 0 0 0 0 0 0 0 0 0 0 0 0 0 0 0 0 0 0 0 0 0 0 0 0 0 0 0 0 0 0 4 10 0 7 24 197 657 785 917
0 0 0 0 0 0 0 0 0 0 0 0 0 0 0 0 0 0 0 0 0 0 0 0 0 0 0 0 0 0 0 0 0 0 0 0 0 0 0 0 2 574 705 771 768
0 0 0 0 0 0 0 0 0 0 0 0 0 0 0 0 0 0 0 0 0 0 0 0 0 0 0 0 0 0 0 0 0 0 0 0 0 0 0 0 0 546 632 648 663
0 0 0 0 0 0 0 0 0 0 0 0 0 0 0 0 0 0 0 0 0 0 0 0 0 0 0 0 0 0 0 0 0 0 0 0 0 0 0 0 47 209 332 390 496
0 0 0 0 0 0 0 0 0 0 0 0 0 0 0 0 0 0 0 0 0 0 0 0 0 0 0 0 0 0 0 0 0 0 0 0 0 0 0 0 0 23 126 262 302
0 0 0 0 0 0 0 0 0 0 0 0 0 0 0 0 0 0 0 0 0 0 0 0 0 0 0 0 0 0 0 0 0 0 0 0 0 0 0 0 0 0 30 311 310
0 0 0 0 0 0 0 0 0 0 0 0 0 0 0 0 0 0 0 0 0 0 0 0 0 0 0 0 0 0 0 0 0 0 0 0 0 0 2 0 0 0 108 325 266
0 0 0 0 0 0 0 0 0 0 0 0 0 0 0 0 0 0 0 0 0 0 0 0 0 0 0 0 0 0 0 0 0 0 0 0 0 0 0 0 0 0 18 3 0
0 0 0 0 0 0 0 0 0 0 0 0 0 0 0 0 0 0 0 0 0 0 0 0 0 0 0 0 0 0 0 0 0 0 0 0 0 0 0 0 0 0 0 0 0
0 0 0 0 0 0 0 0 0 0 0 0 0 0 0 0 0 0 0 0 0 0 0 0 0 0 0 0 0 0 0 0 0 0 0 0 0 0 0 0 0 0 0 0 0
0 0 0 0 0 0 0 0 0 0 0 0 0 0 0 0 0 0 0 0 0 0 0 0 0 0 0 0 0 0 0 0 0 0 0 0 0 0 0 0 0 0 0 0 0
0 0 0 0 0 0 0 0 0 0 0 0 0 0 0 0 0 0 0 0 0 0 0 0 0 0 0 0 0 0 0 0 0 0 0 0 0 23 0 0 0 0 0 0 0
0 0 0 0 0 0 0 0 0 0 0 0 0 0 0 0 0 0 0 0 0 0 0 0 0 0 0 0 0 0 0 0 0 0 0 0 5 1 27 46 61 0 0 0 0
CIN
0 0 0 0 0 0 0 0 0 0 0 0 0 0 0 0 0 0 0 0 0 0 0 0 0 0 0 0 0 0 0 0 0 0 0 0 0 0 0 0 0 -24 -23 -63 -155
0 0 0 0 0 0 0 0 0 0 0 0 0 0 0 0 0 0 0 0 0 0 0 0 0 0 0 0 0 0 0 0 0 0 0 0 0 0 0 0 0 -13 -68 -171 -182
0 0 0 0 0 0 0 0 0 0 0 0 0 0 0 0 0 0 0 0 0 0 0 0 0 0 0 0 0 0 0 0 0 0 0 0 0 0 0 0 0 0 -10 -102 -137
0 0 0 0 0 0 0 0 0 0 0 0 0 0 0 0 0 0 0 0 0 0 0 0 0 0 0 0 0 0 0 0 0 0 0 0 0 0 0 0 0 0 -11 -60 -109
0 0 0 0 0 0 0 0 0 0 0 0 0 0 0 0 0 0 0 0 0 0 0 0 0 0 0 0 0 0 0 0 0 0 0 0 0 0 0 0 0 0 -20 -46 -74
0 0 0 0 0 0 0 0 0 0 0 0 0 0 0 0 0 0 0 0 0 0 0 0 0 0 0 0 0 0 0 0 0 0 0 0 0 0 0 0 0 0 0 -50 -42
0 0 0 0 0 0 0 0 0 0 0 0 0 0 0 0 0 0 0 0 0 0 0 0 0 0 0 0 0 0 0 0 0 0 0 0 0 0 0 0 0 0 0 0 -37
0 0 0 0 0 0 0 0 0 0 0 0 0 0 0 0 0 0 0 0 0 0 0 0 0 0 0 0 0 0 0 0 0 0 0 0 0 0 0 0 0 0 0 -33 -52
0 0 0 0 0 0 0 0 0 0 0 0 0 0 0 0 0 0 0 0 0 0 0 0 0 0 0 0 0 0 0 0 0 0 0 0 0 0 0 0 0 0 0 0 -39
0 0 0 0 0 0 0 0 0 0 0 0 0 0 0 0 0 0 0 0 0 0 0 0 0 0 0 0 0 0 0 0 0 0 0 0 0 0 0 0 0 0 0 0 0
0 0 0 0 0 0 0 0 0 0 0 0 0 0 0 0 0 0 0 0 0 0 0 0 0 0 0 0 0 0 0 0 0 0 0 0 0 0 0 -40 -8 0 0 0 0
0 0 0 0 0 0 0 0 0 0 0 0 0 0 0 0 0 0 0 0 0 0 0 0 0 0 0 0 0 0 0 0 0 0 0 0 0 0 -41 -42 -56 -74 -86 -94 -84
0 0 0 0 0 0 0 0 0 0 0 0 0 0 0 0 0 0 0 0 0 0 0 0 0 0 0 0 0 0 0 0 0 0 0 0 0 -2 -7 -27 -53 -97 -132 -134 -90
0 0 0 0 0 0 0 0 0 0 0 0 0 0 0 0 0 0 0 0 0 0 0 0 0 0 0 0 0 0 0 0 0 0 0 0 -7 -3 -10 -24 -51 -78 -95 -119 -115
0 0 0 0 0 0 0 0 0 0 0 0 0 0 0 0 0 0 0 0 0 0 0 0 0 0 0 0 0 0 0 0 0 0 0 0 -1 -4 0 -35 -76 -78 -79 -109 -92
0 0 0 0 0 0 0 0 0 0 0 0 0 0 0 0 0 0 0 0 0 0 0 0 0 0 0 0 0 0 0 0 0 0 0 0 0 0 0 0 -44 -57 -75 -122 -119
0 0 0 0 0 0 0 0 0 0 0 0 0 0 0 0 0 0 0 0 0 0 0 0 0 0 0 0 0 0 0 0 0 0 0 0 0 0 0 0 0 -72 -82 -113 -116
0 0 0 0 0 0 0 0 0 0 0 0 0 0 0 0 0 0 0 0 0 0 0 0 0 0 0 0 0 0 0 0 0 0 0 0 0 0 0 0 -133 -79 -106 -135 -160
0 0 0 0 0 0 0 0 0 0 0 0 0 0 0 0 0 0 0 0 0 0 0 0 0 0 0 0 0 0 0 0 0 0 0 0 0 0 0 0 0 -155 -126 -169 -189
0 0 0 0 0 0 0 0 0 0 0 0 0 0 0 0 0 0 0 0 0 0 0 0 0 0 0 0 0 0 0 0 0 0 0 0 0 0 0 0 0 0 -153 -149 -157
0 0 0 0 0 0 0 0 0 0 0 0 0 0 0 0 0 0 0 0 0 0 0 0 0 0 0 0 0 0 0 0 0 0 0 0 0 0 -41 0 0 0 -130 -126 -135
0 0 0 0 0 0 0 0 0 0 0 0 0 0 0 0 0 0 0 0 0 0 0 0 0 0 0 0 0 0 0 0 0 0 0 0 0 0 0 0 0 0 -149 -7 0
0 0 0 0 0 0 0 0 0 0 0 0 0 0 0 0 0 0 0 0 0 0 0 0 0 0 0 0 0 0 0 0 0 0 0 0 0 0 0 0 0 0 0 0 0
0 0 0 0 0 0 0 0 0 0 0 0 0 0 0 0 0 0 0 0 0 0 0 0 0 0 0 0 0 0 0 0 0 0 0 0 0 0 0 0 0 0 0 0 0
0 0 0 0 0 0 0 0 0 0 0 0 0 0 0 0 0 0 0 0 0 0 0 0 0 0 0 0 0 0 0 0 0 0 0 0 0 0 0 0 0 0 0 0 0
0 0 0 0 0 0 0 0 0 0 0 0 0 0 0 0 0 0 0 0 0 0 0 0 0 0 0 0 0 0 0 0 0 0 0 0 0 -11 0 -1 0 0 0 0 0
0 0 0 0 0 0 0 0 0 0 0 0 0 0 0 0 0 0 0 0 0 0 0 0 0 0 0 0 0 0 0 0 0 0 0 0 -2 -1 -2 -2 0 0 0 0 0
Wind_Speed
20 21 23 24 24 24 23 23 22 22 21 22 22 20 19 20 18 16 17 17 14 14 14 14 14 14 14 12 11 11 16 17 16 15 13 18 20 19 18 10 9 11 11 16 15
21 22 24 24 24 24 24 23 22 22 21 21 22 21 18 21 15 16 18 15 15 15 14 14 13 14 13 13 12 14 14 17 12 15 16 18 18 20 15 9 8 10 13 15 14
22 23 24 24 24 25 24 23 23 23 22 22 21 21 20 19 13 17 20 14 13 13 14 13 13 13 14 14 13 12 13 8 13 11 14 16 18 15 17 12 12 7 12 10 11
22 23 24 25 24 24 24 24 24 24 23 22 22 20 19 13 13 16 18 16 14 13 13 13 12 13 13 13 14 11 10 8 10 9 12 14 19 19 16 14 10 6 9 7 8
23 23 24 25 25 25 25 25 25 25 24 23 21 21 16 13 14 14 15 15 15 14 13 13 12 13 12 13 12 10 12 9 9 12 13 12 5 13 16 12 8 6 4 4 8
23 23 24 25 25 26 26 26 25 25 23 22 19 18 15 14 14 15 14 14 14 15 14 14 14 13 14 12 10 15 8 6 7 8 8 8 15 9 18 21 18 9 6 6 12
24 24 25 27 27 27 27 26 25 24 22 19 15 16 15 15 14 15 14 14 14 14 14 14 14 12 14 12 12 9 8 14 12 13 13 13 7 18 26 23 17 8 4 3 3
25 25 26 28 28 28 27 27 24 20 18 16 15 15 16 14 14 14 13 13 13 13 13 14 13 14 14 15 12 13 12 11 16 18 16 17 16 24 26 23 14 9 7 7 7
24 26 27 27 29 27 27 25 18 17 16 15 15 14 13 14 14 16 13 13 14 14 13 14 13 15 13 12 12 13 15 15 14 18 19 18 22 25 24 21 17 20 15 8 8
24 25 26 27 28 27 27 19 16 16 16 15 15 13 12 13 16 16 14 13 14 13 13 12 13 13 13 13 15 18 15 16 16 20 22 19 22 24 23 18 17 24 23 24 22
25 25 26 27 27 26 24 17 18 15 15 16 17 15 12 16 14 15 13 13 14 14 14 14 11 16 18 18 17 16 16 17 17 20 23 22 21 24 24 23 24 25 26 27 29
26 26 28 29 27 24 21 17 17 17 17 16 16 13 12 14 14 14 13 12 13 14 14 13 15 16 17 17 15 15 16 19 13 20 20 21 18 21 24 25 26 26 26 27 27
26 27 28 29 24 20 18 18 20 14 15 15 14 13 12 11 13 13 12 14 14 13 13 15 16 15 16 17 14 16 20 21 19 13 16 15 18 20 22 25 26 28 27 25 22
27 27 28 29 18 20 16 20 20 12 13 14 13 14 13 12 13 13 13 14 14 14 13 14 14 15 17 16 10 16 20 16 15 14 16 12 16 20 23 26 27 27 27 26 24
27 27 27 23 22 18 18 21 16 13 13 14 13 12 12 13 13 14 12 14 14 14 12 14 13 16 15 19 19 19 20 18 16 17 15 17 13 21 25 25 25 26 26 26 26
26 26 26 18 20 18 21 20 14 15 13 12 11 10 11 13 14 13 13 14 14 13 12 12 13 14 20 21 15 16 14 14 14 13 13 17 12 19 23 25 24 24 25 26 27
26 26 25 21 18 21 21 15 15 16 10 9 10 10 12 12 14 13 13 14 15 13 14 13 13 14 18 19 15 12 19 15 14 15 18 16 10 17 22 24 25 25 26 27 27
26 26 19 21 22 21 17 14 15 12 11 10 9 9 11 11 12 13 13 14 17 15 13 13 12 16 21 19 18 18 20 20 20 21 22 15 14 16 21 23 25 25 26 27 28
26 20 18 17 19 16 16 16 14 11 11 9 7 7 10 11 10 11 13 15 17 18 16 14 13 13 18 20 18 18 19 19 21 14 13 15 14 14 21 25 27 29 30 30 31
21 19 16 17 16 17 17 16 13 12 12 9 7 9 8 10 9 10 12 16 16 19 15 17 15 14 16 14 16 20 17 17 17 22 22 19 19 17 24 28 30 31 31 31 31
18 17 16 16 17 16 17 14 11 12 11 11 8 7 9 10 11 12 13 14 18 18 17 18 14 15 13 18 22 19 16 19 20 21 26 27 24 21 24 28 30 30 31 31 31
18 18 15 16 15 16 16 13 13 11 10 10 10 9 9 11 12 12 12 15 20 18 17 18 16 17 20 18 15 17 19 22 27 28 31 30 32 22 23 27 29 29 29 29 29
19 17 14 16 17 17 15 13 13 10 10 9 9 11 11 12 14 13 13 16 19 18 18 20 14 19 13 13 13 16 20 21 21 22 24 28 28 18 23 25 27 28 29 29 29
19 19 16 17 18 18 14 12 11 11 10 10 8 9 9 13 16 14 14 16 18 18 20 16 14 15 19 27 24 27 26 26 24 25 29 25 28 23 26 26 26 26 27 28 29
20 21 18 19 20 17 15 13 9 9 10 9 10 10 11 13 15 16 17 16 16 18 18 18 17 17 20 21 22 22 25 26 26 26 27 30 30 30 25 24 23 23 24 27 29
23 20 17 18 16 14 15 14 10 10 7 7 7 9 12 13 16 14 15 17 18 17 20 19 19 21 24 20 22 25 24 26 27 25 22 24 24 21 20 20 23 25 26 27 29
19 18 19 18 15 16 16 12 10 6 11 11 6 8 9 12 14 15 17 17 19 20 21 19 20 22 24 23 27 23 20 24 23 21 22 25 28 24 21 24 27 26 27 29 31
Wind_Direction
303 308 307 304 305 296 294 288 281 282 277 280 283 280 274 276 265 50 23 16 43 66 93 99 100 95 102 82 98 115 167 169 166 164 160 244 264 274 269 184 98 57 73 44 61
301 308 304 307 301 294 292 286 282 281 277 278 284 283 270 292 20 28 9 28 49 47 82 104 72 83 71 68 82 139 156 170 157 176 195 231 244 260 243 176 110 80 58 55 69
302 302 303 307 295 296 290 285 282 280 276 278 279 279 280 296 53 9 343 53 73 61 45 78 65 79 67 74 70 95 158 64 169 166 193 215 229 222 228 205 57 112 48 76 81
299 298 299 305 295 294 289 285 284 282 279 278 278 276 276 46 40 22 14 43 55 57 62 56 70 75 55 57 62 118 94 108 142 128 177 199 235 233 223 218 213 49 32 82 82
294 294 298 302 294 294 290 288 287 285 282 280 277 299 360 63 17 27 42 44 48 47 48 56 69 55 56 33 65 105 62 67 145 184 197 198 177 211 229 225 216 212 26 100 124
293 292 297 299 294 294 291 290 288 288 289 292 323 347 26 51 24 24 48 46 41 46 39 37 38 49 38 38 70 28 72 119 119 131 137 32 354 27 285 257 238 200 183 167 172
296 294 300 301 299 295 293 293 290 304 315 337 14 6 20 13 37 26 43 38 35 24 24 20 20 45 23 32 27 47 62 36 60 49 40 22 53 358 304 282 244 133 118 65 90
296 300 303 302 300 297 296 297 302 331 342 360 18 9 3 23 32 43 53 63 50 42 34 22 41 18 20 11 25 21 32 47 27 8 19 6 357 339 326 324 27 69 78 107 123
298 302 300 301 302 298 298 301 339 344 350 0 351 351 14 25 26 12 38 38 39 34 33 26 30 4 21 21 31 26 7 8 22 4 354 354 341 343 343 352 11 354 17 61 137
293 295 297 301 301 299 303 329 344 343 341 342 341 4 14 8 1 9 35 42 34 39 38 35 24 21 25 14 353 354 5 6 359 352 342 350 342 347 351 5 2 323 320 296 291
298 298 302 302 303 302 321 338 333 346 339 325 321 328 354 343 22 26 44 50 36 34 21 27 40 4 357 3 3 3 360 356 358 352 337 341 344 352 358 356 345 332 317 312 284
300 302 304 305 304 308 326 348 346 325 317 337 330 337 354 354 12 24 45 38 31 21 37 42 22 20 16 19 23 21 12 1 15 0 349 346 0 12 12 15 13 358 341 321 311
302 304 306 305 303 327 337 343 323 342 320 343 346 351 359 26 12 21 32 26 22 32 33 15 22 35 30 20 39 30 359 359 5 30 39 33 32 21 22 18 3 1 355 349 341
302 304 309 305 319 320 326 323 321 351 317 333 344 358 14 25 27 19 37 28 38 27 44 32 42 32 21 38 68 29 5 45 45 54 29 84 31 28 15 6 3 358 354 350 348
303 305 310 316 308 313 315 310 327 329 310 327 342 357 21 6 22 25 46 51 27 31 51 24 32 15 32 339 321 359 349 35 55 51 81 39 88 32 13 11 347 346 349 350 352
298 300 304 320 307 305 293 291 317 295 313 331 353 24 38 15 15 38 43 43 24 27 35 19 36 30 344 315 356 343 47 51 60 59 54 32 143 22 3 341 333 337 343 345 347
289 287 291 296 300 288 281 295 290 295 315 338 357 29 25 31 26 27 28 13 7 29 24 37 32 35 6 349 18 34 5 26 30 355 353 24 87 11 355 343 341 335 338 340 340
281 278 301 286 273 274 284 284 286 301 314 326 350 25 27 22 19 25 29 23 5 1 12 9 29 14 15 1 352 356 347 357 327 322 333 27 30 20 6 353 341 340 340 340 338
277 295 296 294 280 283 279 275 292 301 308 326 26 33 31 18 5 21 11 2 346 333 346 360 4 27 15 14 10 1 351 353 338 2 9 2 10 9 356 347 341 337 338 337 339
290 291 296 289 286 276 273 281 293 300 305 311 350 352 15 11 11 8 360 342 339 339 351 346 350 360 6 23 16 356 5 357 352 335 336 343 337 341 340 337 338 338 338 338 340
293 289 295 286 278 278 272 285 293 301 305 312 344 8 9 0 340 343 344 344 328 338 350 349 0 1 7 355 341 353 1 353 344 337 327 327 332 340 332 333 333 336 337 338 339
286 280 293 282 279 280 276 282 288 299 313 328 336 346 359 341 336 335 339 330 324 333 347 347 354 343 337 354 1 353 348 342 323 320 318 320 319 339 340 336 335 334 336 338 340
272 284 292 279 277 272 279 280 285 299 314 325 336 327 324 323 320 326 334 332 325 336 341 340 7 341 352 2 5 354 348 345 340 335 329 325 328 348 343 340 339 337 338 341 341
270 271 280 275 279 272 269 272 284 303 318 332 345 339 336 321 312 318 324 327 333 340 342 352 351 343 330 322 328 326 327 330 332 328 326 325 324 330 337 337 339 340 340 341 343
264 267 276 268 264 268 269 272 279 296 313 324 330 330 330 318 310 311 314 325 338 345 350 347 345 345 335 332 332 331 329 330 326 324 321 323 322 326 333 336 342 346 345 343 342
257 266 271 272 270 266 266 268 270 294 313 322 338 333 324 315 308 318 318 322 329 344 345 350 343 340 332 338 334 329 330 328 328 331 332 334 335 346 349 349 343 341 341 340 340
265 273 268 266 263 258 260 268 269 290 301 307 334 334 332 324 323 323 326 329 332 333 337 343 343 340 334 340 334 335 347 341 340 345 345 339 335 342 345 341 337 337 339 338 336